Date,TemperatureHighF,TemperatureAvgF,TemperatureLowF,DewpointHighF,DewpointAvgF,DewpointLowF,HumidityHigh,HumidityAvg,HumidityLow,PressureMaxIn,PressureMinIn,WindSpeedMaxMPH,WindSpeedAvgMPH,GustSpeedMaxMPH,PrecipitationSumIn
2013-1-1,47.7,38.3,30.1,13.4,9.5,4.6,46,31,20,30.30,30.20,4,0,6,0.00
2013-1-2,54.7,40.1,29.3,10.2,7.0,3.9,37,26,16,30.26,30.11,2,0,6,0.00
2013-1-3,54.8,38.7,25.4,12.5,5.9,0.8,43,26,15,30.30,30.15,2,0,3,0.00
2013-1-4,54.4,39.2,27.3,14.0,5.3,0.5,40,25,15,30.34,30.20,1,0,3,0.00
2013-1-5,54.5,41.0,24.2,12.3,5.2,0.8,38,23,14,30.35,30.12,0,0,0,0.00
2013-1-6,53.9,45.0,36.9,31.4,23.1,3.2,73,44,19,30.12,29.90,8,2,12,0.00
2013-1-7,43.5,38.8,34.3,28.6,18.7,13.3,72,46,29,30.03,30.00,4,1,8,0.00
2013-1-9,60.7,57.2,54.4,30.0,27.7,25.5,39,32,27,29.86,29.75,12,8,16,0.00
2013-1-10,54.7,43.4,33.7,36.7,18.9,5.9,63,39,23,29.94,29.68,23,11,32,0.00
2013-1-11,46.5,37.8,32.4,17.2,11.7,0.8,50,36,16,30.06,29.94,8,3,12,0.00
2013-1-12,44.9,33.9,26.7,12.6,7.1,2.2,47,33,19,30.16,30.04,3,0,6,0.00
2013-1-13,42.3,30.1,18.1,9.4,2.3,-2.0,47,31,21,30.23,30.06,4,1,7,0.00
2013-1-14,40.2,29.8,19.9,-0.1,-3.8,-6.4,34,24,14,30.42,30.23,1,0,3,0.00
2013-1-15,49.2,33.9,22.4,6.6,-0.4,-6.7,31,23,15,30.57,30.41,2,0,2,0.00
2013-1-16,56.2,39.9,25.0,14.2,8.0,1.5,39,27,18,30.50,30.32,0,0,3,0.00
2013-1-17,60.5,43.4,29.7,13.4,9.3,5.4,43,27,12,30.37,30.23,2,0,4,0.00
2013-1-18,60.5,45.0,34.3,10.4,5.8,2.2,28,20,12,30.30,30.17,3,0,5,0.00
2013-1-19,62.9,46.1,32.9,9.6,4.6,1.3,28,19,10,30.33,30.19,2,0,5,0.00
2013-1-20,63.5,48.4,36.6,11.2,3.8,0.9,23,16,10,30.25,30.11,3,0,7,0.00
2013-1-21,66.6,51.1,40.6,9.5,4.1,0.8,21,15,9,30.20,30.08,6,0,7,0.00
2013-1-22,66.0,50.2,33.5,12.0,6.2,1.1,26,17,11,30.18,30.06,1,0,3,0.00
2013-1-23,57.6,49.5,40.8,31.5,10.8,5.6,52,21,15,30.14,30.03,0,0,0,0.00
2013-1-24,53.3,50.3,47.1,48.9,44.0,25.9,91,80,43,30.19,30.06,0,0,1,0.14
2013-1-25,57.2,51.9,48.5,49.7,47.3,44.9,94,85,66,30.18,29.95,0,0,2,0.12
2013-1-26,63.7,55.0,47.3,51.7,45.4,35.4,98,72,49,29.95,29.73,12,2,27,0.02
2013-1-27,53.3,48.2,42.6,38.6,28.4,18.9,68,48,26,29.90,29.73,19,8,32,0.00
2013-1-28,53.2,43.1,35.2,24.4,18.5,9.7,58,38,18,30.08,29.90,5,2,13,0.00
2013-1-29,60.7,46.0,34.0,31.7,26.7,22.0,65,48,27,30.20,30.01,7,1,15,0.00
2013-1-30,65.5,51.1,37.6,30.5,28.4,25.9,66,43,25,30.31,30.18,1,0,5,0.00
2013-1-31,68.1,52.8,40.8,31.6,29.1,27.0,63,42,23,30.24,30.10,1,0,9,0.00
2013-2-1,67.6,50.4,39.9,31.2,28.9,27.4,63,45,23,30.19,30.10,0,0,2,0.00
2013-2-2,65.3,54.7,44.2,31.5,28.9,26.0,57,38,23,30.25,30.13,3,0,4,0.00
2013-2-3,69.9,58.6,48.0,38.5,33.6,28.6,63,41,23,30.14,29.92,2,0,6,0.00
2013-2-4,72.5,57.0,46.7,31.7,23.4,18.0,50,29,15,30.05,29.91,1,0,4,0.00
2013-2-5,70.9,56.4,38.8,28.9,23.8,18.3,56,30,15,29.96,29.75,12,2,14,0.00
2013-2-6,68.6,57.1,47.7,30.4,19.6,5.9,43,25,9,29.98,29.77,12,2,15,0.00
2013-2-7,66.6,50.2,37.5,29.6,21.3,9.4,53,34,11,29.99,29.72,13,3,18,0.00
2013-2-8,52.2,44.3,38.6,29.1,23.1,16.3,58,44,25,29.77,29.65,15,7,26,0.00
2013-2-9,56.2,45.1,38.8,24.7,21.0,15.5,55,40,23,29.95,29.77,7,2,11,0.00
2013-2-10,55.9,44.7,31.2,21.9,17.9,11.8,59,36,19,30.01,29.86,3,0,9,0.00
2013-2-11,53.3,43.9,33.2,14.4,7.0,1.3,40,23,13,30.20,30.00,6,1,12,0.00
2013-2-12,58.6,43.7,30.0,12.5,6.3,1.7,32,22,13,30.33,30.20,2,0,2,0.00
2013-2-13,66.8,49.7,33.4,18.7,13.0,7.7,39,24,14,30.27,30.09,2,0,3,0.00
2013-2-14,67.8,54.1,40.1,24.7,20.2,12.5,41,27,17,30.19,30.06,5,1,10,0.00
2013-2-15,70.1,56.7,43.8,23.4,18.9,13.8,42,25,13,30.26,30.17,5,1,15,0.00
2013-2-16,68.6,54.4,39.8,20.1,13.4,9.9,34,21,11,30.25,29.92,4,0,4,0.00
2013-2-17,70.8,57.0,42.1,24.0,14.6,5.7,31,20,8,29.91,29.72,8,1,11,0.00
2013-2-18,67.3,53.6,37.3,27.1,22.4,14.2,53,32,17,29.93,29.72,10,2,17,0.00
2013-2-19,55.9,47.8,38.8,33.5,26.1,10.6,77,45,22,29.74,29.46,18,8,25,0.00
2013-2-20,60.5,45.7,35.6,31.6,21.1,14.8,84,40,18,29.85,29.44,9,4,16,0.00
2013-2-21,55.7,44.4,34.0,22.0,16.0,6.2,56,34,16,30.03,29.84,6,1,12,0.00
2013-2-22,61.2,48.2,32.8,26.5,17.6,9.4,57,33,13,30.15,30.04,6,1,10,0.00
2013-2-23,66.3,52.0,39.8,26.5,20.2,7.7,47,30,17,30.05,29.73,25,6,35,0.00
2013-2-24,57.8,47.0,36.5,8.7,4.4,0.5,29,18,10,30.17,30.05,6,2,12,0.00
2013-2-25,63.7,48.0,34.0,16.1,6.6,1.0,29,19,11,30.20,29.92,4,0,10,0.00
2013-2-26,62.1,50.6,39.1,16.7,9.8,1.8,38,21,11,30.15,29.98,3,0,7,0.00
2013-2-27,63.1,48.9,33.8,12.5,6.1,2.0,30,18,10,30.30,30.15,2,0,7,0.00
2013-2-28,68.9,52.5,36.6,13.3,7.8,3.0,28,17,9,30.37,30.26,1,0,2,0.00
2013-3-1,74.4,59.1,43.8,22.4,15.6,7.7,25,19,13,30.36,30.18,3,0,6,0.00
2013-3-2,78.3,62.9,46.1,25.3,20.8,16.9,33,21,12,30.24,29.93,7,1,11,0.00
2013-3-3,73.0,63.6,54.7,35.6,29.9,23.3,40,29,21,29.93,29.70,18,9,25,0.00
2013-3-4,73.3,60.8,48.2,32.9,27.5,22.2,52,30,15,29.94,29.77,5,0,7,0.00
2013-3-5,72.3,58.7,44.1,34.0,27.1,21.5,49,31,19,29.95,29.76,11,2,17,0.00
2013-3-6,63.2,53.7,45.7,35.3,30.2,24.6,65,42,26,29.88,29.78,22,11,29,0.00
2013-3-7,57.8,49.5,43.5,36.0,31.1,23.0,68,50,28,29.83,29.73,11,5,19,0.00
2013-3-8,45.4,40.9,36.2,38.6,33.7,27.9,90,76,56,29.87,29.66,8,1,12,0.30
2013-3-9,65.3,51.4,35.5,35.6,28.3,14.7,89,46,21,30.18,29.87,6,1,7,0.00
2013-3-10,71.6,56.3,41.2,21.0,13.9,7.4,34,20,10,30.27,30.09,2,0,7,0.00
2013-3-11,75.3,58.7,40.9,28.1,18.4,12.2,43,23,9,30.15,29.96,1,0,3,0.00
2013-3-12,79.8,62.1,46.5,24.8,19.6,16.4,34,21,10,30.07,29.95,2,0,3,0.00
2013-3-13,83.4,66.4,49.6,28.2,23.6,19.0,34,21,12,30.12,29.96,1,0,4,0.00
2013-3-14,89.5,70.3,51.9,34.8,27.3,23.3,39,22,11,30.06,29.88,3,0,4,0.00
2013-3-15,88.2,75.1,65.0,37.2,32.2,12.8,32,22,9,29.89,29.65,18,6,25,0.00
2013-3-16,85.9,72.5,62.0,36.1,29.5,20.8,34,22,10,29.76,29.61,17,5,21,0.00
2013-3-17,82.2,68.8,59.5,28.7,23.4,16.7,27,19,10,29.81,29.65,20,8,26,0.00
2013-3-18,77.4,66.2,53.1,27.5,22.5,17.9,32,20,11,29.89,29.73,12,3,17,0.00
2013-3-19,80.9,68.8,60.2,31.9,26.5,21.3,28,21,13,29.90,29.76,14,4,18,0.00
2013-3-20,75.6,67.4,60.9,38.0,31.0,21.9,39,26,16,29.86,29.67,22,13,29,0.00
2013-3-21,74.2,61.0,55.9,35.4,28.4,17.7,44,30,13,29.76,29.57,17,6,26,0.00
2013-3-22,76.0,63.2,53.6,32.1,22.9,11.5,38,22,10,29.76,29.60,9,2,13,0.00
2013-3-23,71.3,60.0,47.0,22.1,13.3,3.9,29,17,8,29.95,29.76,7,1,10,0.00
2013-3-24,76.0,60.2,44.6,26.4,13.9,6.7,40,18,9,29.98,29.79,4,0,6,0.00
2013-3-25,77.4,64.8,51.0,33.1,23.5,12.3,42,22,12,29.86,29.70,6,2,17,0.00
2013-3-26,78.8,67.9,58.7,32.1,22.9,4.5,29,19,9,29.74,29.60,19,8,28,0.00
2013-3-27,78.1,66.2,58.3,34.5,30.1,25.0,40,27,16,29.76,29.65,17,6,23,0.00
2013-3-28,78.5,66.5,58.1,38.9,32.8,24.4,45,30,16,29.87,29.76,14,6,18,0.00
2013-3-29,80.7,68.4,54.2,39.1,30.4,17.0,46,26,10,29.98,29.85,8,1,14,0.00
2013-3-30,81.8,70.3,60.4,37.8,31.1,23.6,35,24,14,29.92,29.78,6,2,13,0.00
2013-3-31,73.9,63.1,55.7,45.9,39.1,29.0,65,43,20,29.86,29.77,14,5,21,0.00
2013-4-1,73.5,61.3,52.2,36.7,31.4,23.9,47,34,17,29.91,29.80,18,8,24,0.00
2013-4-2,78.5,64.9,53.5,39.0,32.5,23.1,48,32,13,29.96,29.82,8,2,12,0.00
2013-4-3,83.2,69.6,54.4,37.6,32.8,23.5,50,28,13,29.96,29.82,7,1,8,0.00
2013-4-4,79.4,70.1,62.9,40.2,35.0,29.8,38,28,20,29.86,29.74,14,6,22,0.00
2013-4-5,79.6,67.2,58.9,39.5,34.4,24.3,45,31,16,29.84,29.71,12,4,18,0.00
2013-4-6,79.8,66.8,56.3,37.9,33.9,28.8,41,30,17,29.87,29.70,13,5,15,0.00
2013-4-7,81.6,67.2,60.1,36.7,33.7,29.5,40,30,17,29.79,29.53,24,6,31,0.00
2013-4-8,66.0,57.0,46.5,37.3,25.6,10.7,70,32,16,29.72,29.38,23,10,33,0.00
2013-4-9,71.3,59.1,48.3,17.7,11.8,2.8,28,17,7,29.96,29.72,11,3,18,0.00
2013-4-10,82.2,66.2,51.1,29.6,18.2,11.3,27,16,9,30.04,29.81,10,1,18,0.00
2013-4-11,82.8,71.1,59.2,39.2,27.4,22.5,37,21,12,29.82,29.53,16,3,22,0.00
2013-4-12,84.9,72.4,60.5,36.8,30.0,26.4,35,22,13,29.71,29.56,11,3,15,0.00
2013-4-13,86.7,74.3,64.5,35.2,31.1,25.5,32,21,14,29.61,29.38,21,10,27,0.00
2013-4-14,80.9,69.4,64.7,35.6,31.6,25.7,29,25,16,29.49,29.31,25,12,34,0.00
2013-4-15,73.2,63.2,53.9,32.5,25.8,15.6,37,25,13,29.52,29.35,27,19,33,0.00
2013-4-16,66.8,53.5,43.5,27.3,19.7,11.6,40,27,14,29.90,29.52,22,6,24,0.00
2013-4-17,66.0,54.7,42.8,19.3,10.8,3.3,30,18,10,30.11,29.90,5,1,12,0.00
2013-4-18,71.3,57.3,42.2,23.5,9.8,4.3,28,16,9,30.22,30.08,3,0,6,0.00
2013-4-19,80.7,64.6,47.1,27.2,15.3,5.2,24,15,8,30.15,29.82,10,2,16,0.00
2013-4-20,84.5,71.8,56.5,35.9,26.9,18.6,28,20,10,29.91,29.75,5,1,10,0.00
2013-4-21,89.3,73.5,60.9,39.1,30.0,24.7,35,22,11,29.85,29.68,10,3,15,0.00
2013-4-22,91.2,76.8,60.1,37.3,30.9,25.9,37,20,10,29.75,29.52,13,4,18,0.00
2013-4-23,79.4,70.8,62.1,31.9,19.0,7.4,24,14,9,29.84,29.57,6,1,14,0.00
2013-4-24,80.9,70.2,55.9,27.9,16.1,7.2,34,14,8,29.75,29.65,5,1,9,0.00
2013-4-25,84.5,71.4,55.6,34.0,26.5,18.0,33,20,10,29.81,29.67,11,2,17,0.00
2013-4-26,87.8,74.5,56.9,39.0,28.7,14.2,44,22,7,29.97,29.81,6,1,10,0.00
2013-4-27,92.5,79.6,63.9,39.3,28.5,19.2,31,17,8,29.98,29.78,10,2,14,0.00
2013-4-28,95.9,82.5,68.3,38.5,31.4,23.1,29,17,8,29.80,29.60,11,4,18,0.00
2013-4-29,95.6,83.5,68.1,42.0,35.0,24.3,37,19,8,29.65,29.45,13,4,19,0.00
2013-4-30,93.4,81.2,72.0,44.5,36.0,25.3,36,21,9,29.52,29.38,17,6,26,0.00
2013-5-1,81.6,73.5,64.3,41.3,13.6,-2.3,41,13,4,29.92,29.52,7,2,18,0.00
2013-5-15,94.5,83.3,76.3,35.1,30.3,26.3,22,15,10,29.60,29.55,11,7,15,0.00
2013-5-16,89.9,76.4,64.8,39.5,32.1,25.8,39,21,12,29.61,29.54,19,9,23,0.00
2013-5-17,82.4,71.1,63.1,40.8,37.8,34.4,44,31,20,29.68,29.57,19,9,29,0.00
2013-5-18,87.0,73.4,62.6,38.3,32.3,27.8,34,23,12,29.80,29.68,11,4,16,0.00
2013-5-19,88.4,76.2,64.5,38.1,30.9,25.7,28,20,11,29.82,29.67,8,2,11,0.00
2013-5-20,87.2,76.6,63.2,34.7,25.6,18.0,26,16,9,29.88,29.73,4,0,6,0.00
2013-5-21,92.7,79.8,69.8,31.9,25.3,18.2,22,14,8,29.76,29.51,20,9,26,0.00
2013-5-22,82.8,72.5,61.2,35.1,25.3,12.5,27,18,9,29.55,29.40,25,13,32,0.00
2013-5-23,81.6,67.8,57.5,26.7,17.5,-1.6,27,16,4,29.68,29.49,20,7,30,0.00
2013-5-24,84.5,69.4,54.7,37.0,25.8,15.7,40,21,8,29.77,29.64,8,1,15,0.00
2013-5-25,87.4,72.7,60.5,34.6,28.2,19.0,31,20,9,29.72,29.62,16,5,26,0.00
2013-5-26,88.0,73.7,63.4,38.9,31.4,23.3,34,22,13,29.72,29.63,20,6,33,0.00
2013-5-27,88.6,75.1,63.9,39.0,34.1,24.4,33,23,13,29.73,29.56,15,5,26,0.00
2013-5-28,88.4,75.6,65.5,44.4,39.5,35.9,39,28,17,29.56,29.46,15,7,26,0.00
2013-5-29,89.9,77.1,66.6,46.8,41.1,37.3,40,29,17,29.60,29.44,18,8,28,0.00
2013-5-30,95.4,80.0,66.8,46.8,39.0,26.1,44,26,9,29.65,29.50,17,6,29,0.00
2013-5-31,95.9,83.7,69.1,39.8,32.5,23.7,28,17,9,29.75,29.57,12,1,22,0.00
2013-6-1,99.7,87.1,70.4,35.8,27.3,20.0,24,13,6,29.73,29.55,6,1,12,0.00
2013-6-2,98.7,86.3,70.9,41.3,33.3,24.8,25,16,9,29.56,29.40,10,3,25,0.00
2013-6-3,97.3,84.4,71.3,47.6,38.6,29.1,34,21,10,29.56,29.43,10,2,19,0.00
2013-6-4,98.7,84.8,69.9,46.7,41.0,27.1,39,23,9,29.64,29.54,10,2,21,0.00
2013-6-5,101.7,87.9,73.5,50.5,41.8,31.6,38,22,9,29.71,29.55,13,3,22,0.00
2013-6-6,105.1,90.9,76.3,48.0,39.9,29.0,35,19,8,29.65,29.51,9,2,21,0.00
2013-6-7,106.5,93.5,77.2,48.6,37.7,24.6,34,16,6,29.60,29.47,6,1,15,0.00
2013-6-8,109.1,95.8,78.8,47.6,36.2,27.1,28,14,6,29.54,29.43,8,2,22,0.00
2013-6-9,101.0,89.1,77.4,50.2,33.4,13.0,36,16,5,29.59,29.51,9,2,21,0.00
2013-6-10,89.0,79.7,71.6,40.4,28.0,13.0,27,16,6,29.65,29.55,17,6,29,0.00
2013-6-11,100.4,86.6,73.3,45.2,36.1,27.1,34,18,8,29.74,29.60,15,4,24,0.00
2013-6-12,97.5,86.5,75.8,42.6,36.7,28.7,28,18,10,29.69,29.59,14,5,26,0.00
2013-6-13,95.9,83.2,72.8,41.0,27.9,12.8,28,15,5,29.68,29.57,19,9,32,0.00
2013-6-14,95.9,81.4,62.7,36.1,26.1,8.3,28,15,6,29.72,29.55,12,3,20,0.00
2013-6-15,94.9,82.1,68.1,38.2,28.9,12.5,32,16,5,29.67,29.59,10,3,23,0.00
2013-6-16,96.3,82.8,66.8,39.7,30.4,24.4,31,16,8,29.75,29.63,12,4,23,0.00
2013-6-17,98.5,83.7,69.3,44.0,34.6,26.9,40,19,9,29.75,29.60,14,4,27,0.00
2013-6-18,95.6,82.2,71.6,39.3,31.6,20.4,29,17,7,29.62,29.51,18,9,32,0.00
2013-6-19,76.7,69.3,66.3,37.0,33.7,27.1,30,27,18,29.59,29.50,22,12,36,0.00
2013-6-20,91.6,77.7,65.8,35.7,28.2,17.1,28,17,7,29.69,29.51,14,4,20,0.00
2013-6-21,94.7,79.9,68.3,36.1,31.9,20.4,29,19,7,29.67,29.52,18,5,23,0.00
2013-6-22,96.8,83.3,69.3,36.5,32.0,27.2,26,17,9,29.68,29.53,10,3,15,0.00
2013-6-23,94.0,80.9,69.9,42.3,36.6,32.8,28,21,13,29.55,29.41,22,7,31,0.00
2013-6-24,84.7,80.0,73.0,49.2,45.5,39.7,41,30,24,29.62,29.53,22,14,30,0.00
2013-6-25,95.4,82.2,69.6,52.3,48.0,44.4,48,32,18,29.72,29.61,20,8,28,0.00
2013-6-26,102.8,88.1,74.0,56.6,49.2,41.6,48,28,14,29.77,29.66,11,3,18,0.00
2013-6-27,105.1,91.0,76.5,56.3,50.3,41.7,47,27,12,29.83,29.71,8,3,13,0.00
2013-6-28,108.5,95.1,81.1,55.1,48.8,36.8,38,23,9,29.78,29.60,10,3,15,0.00
2013-6-29,109.9,96.3,82.4,53.1,46.7,35.2,34,20,8,29.67,29.51,11,3,16,0.00
2013-6-30,111.6,98.2,86.3,52.3,42.9,33.8,27,16,8,29.60,29.44,12,4,19,0.00
2013-7-1,109.1,97.5,85.3,49.7,43.8,36.2,27,17,10,29.64,29.50,11,2,16,0.00
2013-7-2,108.2,94.9,81.2,52.2,46.9,42.8,33,20,12,29.73,29.55,14,4,18,0.00
2013-7-3,110.8,98.5,85.1,49.0,44.5,-99.9,26,17,11,29.63,29.43,14,6,19,0.00
2013-7-4,109.9,98.2,87.0,51.9,46.8,42.8,26,18,11,29.53,29.38,10,2,21,0.00
2013-7-5,106.5,95.4,85.7,54.0,48.4,36.4,33,21,11,29.49,29.39,13,5,25,0.00
2013-7-6,104.1,92.3,81.1,44.2,38.1,32.8,24,16,9,29.52,29.42,9,3,22,0.00
2013-7-7,105.1,93.1,81.4,41.5,35.4,27.0,23,14,7,29.60,29.48,14,3,27,0.00
2013-7-8,104.9,93.5,84.1,34.2,29.3,24.2,14,10,6,29.72,29.60,13,7,25,0.00
2013-7-9,106.0,94.3,82.6,37.1,30.2,24.5,14,11,7,29.78,29.69,14,6,25,0.00
2013-7-10,104.1,93.9,87.4,49.3,38.3,31.3,27,15,10,29.73,29.60,13,6,22,0.00
2013-7-11,89.9,84.4,79.9,60.1,49.0,42.5,50,30,22,29.75,29.61,11,1,21,0.00
2013-7-12,97.8,86.8,75.6,48.3,40.0,24.0,33,21,10,29.74,29.58,7,2,17,0.00
2013-8-16,102.8,95.1,85.3,48.8,45.8,42.1,26,19,13,29.69,29.62,10,5,18,0.00
2013-8-17,103.3,89.5,77.6,52.2,41.8,28.9,40,21,8,29.73,29.55,9,2,20,0.00
2013-8-18,102.8,85.7,72.7,62.5,44.7,38.2,46,25,15,29.80,29.58,4,0,15,0.04
2013-8-19,96.6,81.8,67.6,67.5,58.9,53.1,86,50,26,29.83,29.67,9,0,13,0.45
2013-8-29,101.7,93.0,84.9,61.3,56.7,48.3,43,31,17,29.78,29.68,7,0,12,0.00
2013-8-30,97.1,87.6,78.1,62.7,57.0,49.6,44,36,26,29.83,29.69,4,0,11,0.00
2013-8-31,98.7,87.7,77.2,58.4,54.0,47.3,48,33,21,29.78,29.58,11,3,15,0.00
2013-9-1,98.0,86.8,77.6,54.9,51.8,48.7,43,31,21,29.74,29.59,10,3,16,0.00
2013-9-2,98.2,88.3,78.8,57.8,51.4,45.6,46,30,17,29.73,29.59,10,3,15,0.00
2013-9-3,98.2,91.1,79.4,57.2,50.4,46.7,44,26,19,29.73,29.62,8,2,13,0.00
2013-9-4,101.2,88.7,74.6,56.4,49.0,40.7,46,27,13,29.79,29.64,7,1,11,0.00
2013-9-5,98.0,90.8,79.4,52.5,50.0,48.0,37,25,20,29.75,29.71,2,0,4,0.00
2013-9-6,101.5,90.4,78.5,48.0,43.7,40.0,30,21,14,29.73,29.57,7,2,13,0.00
2013-9-7,100.7,87.9,76.8,53.8,42.8,32.0,35,22,10,29.73,29.58,7,1,10,0.00
2013-9-8,97.5,83.0,69.6,59.5,50.0,34.9,57,33,19,29.72,29.54,6,1,21,0.03
2013-9-9,95.4,83.1,70.4,59.2,50.4,38.8,66,36,18,29.68,29.51,9,1,12,0.00
2013-9-10,92.5,82.2,72.1,51.4,43.8,38.4,47,27,18,29.69,29.52,8,1,11,0.00
2013-9-11,92.5,81.6,70.8,47.2,41.7,39.1,34,25,17,29.76,29.65,6,0,7,0.00
2013-9-12,95.6,83.1,71.1,49.0,42.0,36.9,35,24,13,29.76,29.61,7,1,12,0.00
2013-9-13,96.3,83.6,69.4,49.4,45.5,42.1,44,28,16,29.66,29.49,6,1,11,0.00
2013-9-14,99.9,87.2,71.8,51.9,44.2,36.7,43,24,12,29.59,29.45,6,1,11,0.00
2013-9-15,99.4,87.6,73.9,49.4,41.4,34.2,38,22,11,29.60,29.51,9,2,18,0.00
2013-9-16,97.1,85.4,72.0,45.4,38.6,34.2,35,20,12,29.66,29.52,8,2,15,0.00
2013-9-17,92.9,80.5,73.2,41.4,34.3,15.9,30,20,6,29.58,29.44,15,4,24,0.00
2013-9-18,90.3,77.3,64.8,44.4,35.2,26.8,42,23,12,29.63,29.50,11,1,17,0.00
2013-9-19,92.5,79.3,66.6,37.6,27.1,22.6,26,15,9,29.72,29.59,2,0,7,0.00
2013-9-20,94.0,79.2,62.6,38.6,29.7,21.1,29,17,8,29.65,29.52,7,2,14,0.00
2013-9-21,84.5,72.9,63.1,41.6,38.7,29.7,44,30,14,29.59,29.49,20,6,34,0.00
2013-9-22,79.9,67.3,57.2,39.9,32.0,23.3,43,29,13,29.75,29.54,14,4,21,0.00
2013-9-23,88.4,72.3,56.0,43.1,34.1,29.1,54,27,13,29.85,29.74,2,0,6,0.00
2013-9-24,92.9,77.9,61.5,38.1,28.7,11.7,38,19,5,29.77,29.57,16,5,22,0.00
2013-9-25,80.1,70.2,59.0,43.4,32.6,14.9,47,27,9,29.57,29.35,22,13,29,0.00
2013-9-26,59.0,56.6,54.1,33.3,27.8,24.4,38,33,30,29.57,29.45,15,5,22,0.00
2013-10-9,61.0,55.3,50.7,40.6,37.2,34.1,59,51,40,29.62,29.44,11,3,22,0.00
2013-10-10,72.8,59.0,47.1,37.3,34.0,29.9,60,41,21,29.85,29.62,5,1,9,0.00
2013-10-11,61.6,53.9,47.1,36.8,34.4,32.8,59,48,38,29.96,29.85,3,0,5,0.00
2013-10-12,77.7,65.5,49.4,37.6,28.0,13.1,52,28,9,29.87,29.68,13,3,20,0.00
2013-10-13,74.9,65.4,56.6,36.1,30.3,21.5,39,28,17,29.90,29.66,12,4,18,0.00
2013-10-14,72.8,61.9,51.6,33.0,28.3,21.7,44,29,18,30.04,29.90,2,0,6,0.00
2013-10-15,74.0,61.7,49.8,30.6,24.3,18.8,43,25,14,29.99,29.88,3,0,4,0.00
2013-10-16,73.5,60.7,49.6,29.9,19.9,15.0,45,22,12,30.10,29.95,1,0,2,0.00
2013-10-17,77.9,62.0,48.2,35.0,19.7,15.7,41,20,11,29.99,29.82,1,0,2,0.00
2013-10-18,79.9,65.9,54.8,25.5,20.0,15.2,30,18,11,29.99,29.88,1,0,3,0.00
2013-10-19,84.0,66.2,50.5,28.6,17.5,11.7,29,16,9,30.01,29.86,1,0,4,0.00
2013-10-20,85.1,68.7,54.7,26.0,18.1,14.2,26,15,8,29.89,29.73,1,0,1,0.00
2013-10-21,83.0,69.2,56.2,28.5,19.8,15.7,28,16,10,29.90,29.79,3,0,4,0.00
2013-10-22,82.2,67.1,53.5,26.1,21.0,17.1,28,18,11,29.95,29.82,2,0,3,0.00
2013-10-23,82.2,67.3,54.5,30.1,21.9,19.2,35,19,11,29.85,29.74,5,0,6,0.00
2013-10-24,84.3,69.2,56.0,31.1,22.5,18.8,37,18,10,29.86,29.77,3,0,5,0.00
2013-10-25,86.5,71.0,57.3,30.8,23.5,19.1,28,18,9,29.97,29.86,6,0,11,0.00
2013-10-26,83.4,68.5,55.0,27.9,22.0,19.7,28,18,10,30.03,29.89,3,0,5,0.00
2013-10-27,82.2,67.2,55.0,37.2,24.0,18.2,43,20,10,29.90,29.43,18,4,26,0.00
2013-10-28,62.6,54.1,47.7,37.6,32.1,25.0,67,44,29,29.74,29.41,18,8,26,0.00
2013-10-29,62.6,52.1,43.8,38.0,33.7,30.2,68,51,30,29.89,29.72,13,2,18,0.00
2013-10-30,64.8,53.0,44.2,33.4,27.5,21.8,57,39,20,30.03,29.89,0,0,3,0.00
2013-10-31,69.8,54.9,43.1,32.5,23.5,17.7,57,32,17,30.12,30.01,1,0,3,0.00
2013-11-1,73.5,57.4,42.6,29.9,23.1,17.9,49,27,17,30.17,30.00,2,0,7,0.00
2013-11-2,76.3,60.0,44.8,33.9,25.6,21.9,56,29,15,30.01,29.68,9,0,13,0.00
2013-11-3,72.5,60.0,46.7,31.0,25.5,20.3,42,28,16,29.75,29.63,5,0,11,0.00
2013-11-4,66.0,57.4,49.1,33.8,25.4,15.8,50,30,18,29.93,29.63,3,0,6,0.00
2013-11-5,62.6,52.1,40.6,20.5,13.0,7.0,35,22,11,30.19,29.93,3,0,7,0.00
2013-11-18,64.0,59.3,56.0,37.4,36.4,35.1,47,42,35,29.94,29.89,4,1,12,0.00
2013-11-19,63.4,54.9,44.9,38.8,35.8,34.2,66,49,36,29.89,29.79,6,0,10,0.00
2013-11-20,68.1,58.3,49.1,43.4,37.4,33.5,64,47,32,29.79,29.63,14,3,18,0.00
2013-11-21,61.3,52.4,43.8,44.8,40.4,32.0,90,65,48,29.92,29.66,8,1,12,0.34
2013-11-22,44.3,41.5,39.1,36.4,34.5,31.9,85,76,62,30.04,29.92,6,1,12,0.24
2013-11-23,49.9,45.7,41.9,39.0,36.6,33.3,85,71,57,30.10,30.01,2,0,4,0.05
2013-11-24,58.1,46.8,38.8,39.8,35.7,29.8,86,67,34,30.19,30.09,0,0,1,0.00
2013-11-25,63.4,48.3,37.0,41.3,36.1,31.7,84,65,34,30.27,30.18,1,0,1,0.00
2013-11-26,61.0,49.7,39.9,40.1,36.0,32.9,80,61,35,30.26,30.11,0,0,0,0.00
2013-11-27,63.5,51.5,43.3,38.8,35.6,32.7,75,56,32,30.11,29.90,1,0,4,0.00
2013-11-28,60.1,50.2,41.9,39.5,34.4,29.9,76,56,33,30.07,29.92,2,0,4,0.00
2013-11-29,60.2,49.8,42.1,37.1,33.0,30.2,69,54,32,30.18,30.06,1,0,4,0.00
2013-11-30,64.8,52.2,44.2,34.7,31.1,27.8,65,46,27,30.23,30.10,3,0,5,0.00
2013-12-1,65.6,52.1,42.3,32.5,27.8,23.9,61,41,23,30.28,30.16,4,0,6,0.00
2013-12-2,66.1,55.0,39.8,32.3,25.2,14.4,60,35,14,30.18,29.70,8,1,13,0.00
2013-12-3,65.2,58.6,45.7,41.0,31.3,17.3,56,38,16,29.69,29.43,23,13,31,0.00
2013-12-4,46.8,39.8,31.0,20.6,10.8,5.9,42,30,22,29.96,29.57,9,0,15,0.00
2013-12-5,44.2,34.2,25.7,12.0,8.9,6.4,51,36,21,30.09,29.95,0,0,2,0.00
2013-12-6,48.6,36.7,24.4,17.9,7.0,-9.9,59,33,10,30.16,29.96,6,1,15,0.00
2013-12-7,45.2,39.2,34.7,32.1,12.5,-1.1,62,35,17,29.99,29.74,30,10,42,0.00
2013-12-8,40.6,32.9,27.9,11.3,8.8,6.0,47,37,27,30.27,29.99,4,1,6,0.00
2013-12-9,43.6,32.9,23.0,9.9,1.0,-7.6,48,28,13,30.50,30.26,3,0,7,0.00
2013-12-10,47.6,33.1,21.9,4.3,0.1,-4.1,42,25,13,30.49,30.24,0,0,0,0.00
2013-12-11,54.2,37.7,26.4,10.3,6.0,0.9,37,27,15,30.35,30.25,1,0,2,0.00
2013-12-12,57.5,42.2,27.0,16.9,12.2,7.5,49,30,18,30.30,30.12,1,0,3,0.00
2013-12-13,62.3,44.4,30.7,17.4,13.8,10.8,48,30,14,30.30,30.09,0,0,1,0.00
2013-12-14,60.4,47.7,37.9,22.7,17.4,14.4,44,31,18,30.42,30.30,3,0,7,0.00
2013-12-15,61.3,46.9,30.9,21.3,17.6,15.7,56,32,18,30.41,30.26,0,0,0,0.00
2013-12-16,65.3,49.7,38.9,22.6,19.4,16.8,43,31,18,30.31,30.18,0,0,0,0.00
2013-12-17,65.5,51.3,39.6,25.4,20.1,17.4,45,30,18,30.25,30.06,1,0,1,0.00
2013-12-18,61.5,51.6,42.3,25.7,21.8,18.5,46,32,21,30.06,29.70,1,0,7,0.00
2014-1-2,61.2,50.2,45.5,21.1,20.4,19.3,37,31,20,30.07,30.04,0,0,0,0.00